Regional Weather Roundup
Issued by NWS Huntsville, AL

Current Version | Previous Version | Text Only | Print | Product List | Glossary On
Versions: 1 2 3 4 5 6 7 8 9 10 11 12 13 14 15 16 17 18 19 20 21 22 23 24 25 26 27 28 29 30 31 32 33 34 35 36 37 38 39 40 41 42 43 44 45 46 47 48 49 50
000
ASUS44 KHUN 180410
RWRHUN

WEATHER ROUNDUP FOR THE TENNESSEE VALLEY
NATIONAL WEATHER SERVICE HUNTSVILLE AL
1100 PM CDT TUE OCT 17 2017

ALZ001>004-180500-
NORTHWEST ALABAMA

CITY           SKY/WX    TMP DP  RH WIND       PRES   REMARKS
COURTLAND HCN    N/A     48 N/A N/A CALM        N/A
RUSSELLVILLE     N/A     45 N/A N/A MISG        N/A
SHOALS AIRPORT CLEAR     48  45  89 CALM      30.28S
SHOALS TVA RES   N/A     46 N/A N/A MISG        N/A
$$

ALZ005>007-016-180500-
NORTH CENTRAL ALABAMA

CITY           SKY/WX    TMP DP  RH WIND       PRES   REMARKS
CULLMAN AG STN   N/A     45 N/A N/A CALM        N/A
DECATUR AP     CLEAR     47  47 100 E5        30.29R
HUNTSVILLE AP  CLEAR     51  49  92 SE5       30.28R
MERIDIANVILLE  CLEAR     46  45  93 CALM      30.29S
REDSTONE ARSN  CLEAR     49  47  91 CALM      30.27S
VINEMONT AP    FAIR      45  44  97 CALM      30.30S
$$

ALZ008>010-180500-
NORTHEAST ALABAMA

CITY           SKY/WX    TMP DP  RH WIND       PRES   REMARKS
ALBERTVILLE    CLEAR     50  50 100 E3        30.28S
FORT PAYNE     CLEAR     45  43  93 NE3       30.29F
SCOTTSBORO AP  CLEAR     48  48 100 CALM      30.30S
SCOTTSBORO HCN   N/A     46 N/A N/A MISG        N/A
VALLEY HEAD      N/A     45 N/A N/A MISG        N/A
$$

TNZ076-096-097-180500-
SOUTHEASTERN MIDDLE TENNESSEE

CITY           SKY/WX    TMP DP  RH WIND       PRES   REMARKS
TULLAHOMA      CLEAR     45  43  93 CALM      30.29S
WINCHESTER     CLEAR     48  46  93 CALM        N/A
$$

...SURROUNDING SITES...

CITY           SKY/WX    TMP DP  RH WIND       PRES   REMARKS
ATLANTA        PTCLDY    54  45  71 E6        30.30R
ANNISTON       CLEAR     52  48  86 E5        30.29R
BIRMINGHAM     CLEAR     56  47  71 E3        30.29S
CHATTANOOGA    CLOUDY    51  47  86 CALM      30.31R
CORINTH        MOCLDY    46  46 100 CALM      30.25F
DALTON         CLEAR     46  46 100 CALM      30.32S
GADSDEN        CLEAR     48  48 100 CALM      30.29S
GOLDEN TRNGL   CLEAR     52  49  89 CALM      30.25S
HALEYVILLE     FAIR      47  47 100 CALM      30.30R
JACKSON TN     CLEAR     48  47  96 CALM      30.25F
MEMPHIS        CLEAR     54  48  80 CALM      30.24R
NASHVILLE      CLEAR     50  45  83 S3        30.28S
OXFORD MS      FAIR      48  46  93 CALM      30.26S
ROME           CLEAR     49  48  97 CALM      30.30R
SAVANNAH       CLEAR     46  46 100 CALM      30.25S
SELMER         CLEAR     48  46  93 CALM      30.25S
TUPELO         CLEAR     50  46  86 N3        30.25S
TUSCALOOSA     CLEAR     53  53 100 N3        30.26R
$$

...GULF COAST WEATHER...

CITY           SKY/WX    TMP DP  RH WIND       PRES   REMARKS
GULFPORT       CLEAR     65  54  67 NE7       30.18S
PASCAGOULA     CLEAR     59  54  83 N5        30.19F
MOBILE         CLEAR     60  54  80 NE5       30.21S
GULF SHORES    CLEAR     60  53  76 NW6       30.19S
PENSACOLA      CLEAR     65  49  56 NE10      30.18S
DESTIN         CLEAR     69  47  45 E8G16     30.19R
PANAMA CITY    CLEAR     64  47  54 E8G17     30.19S
APPALACHICOLA  CLEAR     62  55  77 NE10      30.18S
$$




USA.gov is the U.S. government's official web portal to all federal, state and local government web resources and services.